Theta_e
300 301 301 301 301 301 301 302 301 301 301 300 300 300 301 301 301 302 302 305 304 305 310 313 314 316 317 313 319 322 319 320 319 317 316 320 318 323 324 323 327 332 344 353 354
301 301 301 301 301 301 301 301 301 301 301 301 301 301 302 302 302 303 305 309 310 311 308 310 315 314 316 313 315 320 321 321 318 317 318 318 319 322 323 323 324 342 348 352 354
301 301 301 301 301 301 301 300 300 300 301 301 302 302 302 302 304 307 314 309 308 308 311 309 313 316 315 314 314 319 323 320 320 320 320 319 320 322 321 319 322 323 345 347 352
301 301 301 301 301 301 301 301 301 301 301 302 302 302 305 307 306 310 315 312 308 309 313 313 311 312 314 313 315 313 319 321 321 321 320 319 321 321 322 321 322 322 334 342 346
301 301 301 301 301 302 302 302 302 302 301 302 302 303 307 308 308 307 308 308 308 309 315 314 314 312 313 315 315 315 315 318 321 322 321 321 320 320 321 322 322 322 322 338 338
300 300 301 301 302 302 302 302 302 302 302 302 303 305 308 308 306 307 309 309 308 312 313 315 315 314 314 314 314 315 318 317 318 320 321 321 319 320 321 322 322 322 322 330 336
300 300 301 302 302 302 302 303 304 304 303 304 305 306 308 308 309 309 309 310 310 308 309 309 316 317 318 316 317 316 316 319 319 319 321 321 319 319 321 322 321 322 322 322 333
300 300 301 302 302 302 303 307 310 310 308 307 306 306 309 311 310 310 310 311 310 310 308 309 310 310 311 317 319 318 317 317 319 320 321 319 319 319 321 320 320 322 322 321 321
300 300 301 302 302 302 305 310 312 312 311 310 308 308 312 312 312 311 310 310 311 311 309 309 310 310 310 313 317 319 319 319 319 320 321 321 320 319 321 320 320 321 321 321 321
300 300 301 302 302 303 308 311 312 312 312 312 311 311 312 313 313 312 311 310 310 310 311 311 310 309 311 312 320 321 318 319 319 320 321 321 321 318 320 320 320 321 321 321 320
300 300 301 302 303 304 311 312 311 312 311 309 310 312 311 311 310 311 311 311 311 310 309 312 312 310 310 312 315 320 319 319 320 320 321 321 320 318 318 319 318 320 321 320 320
300 301 301 302 303 308 312 313 310 310 310 310 311 311 311 311 311 311 311 312 311 310 308 308 312 311 311 312 314 318 320 319 321 322 320 319 320 319 319 318 319 319 321 320 320
301 301 302 303 306 309 312 311 310 310 309 311 313 313 312 312 312 311 312 313 312 311 309 309 311 311 310 311 314 315 319 319 320 321 321 320 320 320 320 319 321 320 321 321 320
301 302 302 303 308 311 312 310 310 311 310 314 314 313 313 313 313 314 313 313 312 312 311 310 311 312 312 310 313 316 318 321 321 320 320 321 321 320 320 319 319 320 320 321 321
302 303 304 306 309 310 309 310 311 312 318 314 313 312 313 314 315 315 313 312 312 313 312 313 313 313 312 311 311 314 317 320 321 321 322 321 319 321 319 320 320 319 320 321 321
302 305 305 308 309 310 310 310 313 315 317 313 312 312 313 315 314 315 315 313 311 313 313 313 312 312 314 314 312 314 316 319 320 321 324 324 319 318 320 320 320 319 321 322 322
302 307 310 310 310 311 313 313 315 315 312 313 312 312 314 313 313 314 315 314 313 314 315 314 313 311 314 314 315 312 314 320 322 323 329 325 323 319 321 320 320 320 322 323 322
304 311 311 312 311 312 313 315 316 313 312 311 312 313 313 312 312 312 313 316 314 314 315 319 316 312 312 313 315 311 312 324 327 324 325 324 327 321 321 322 322 322 322 323 323
310 312 314 311 311 312 313 313 314 312 311 312 312 313 313 314 312 312 313 312 315 311 316 318 315 312 312 314 315 316 313 317 322 321 324 325 325 328 324 324 320 321 322 323 323
311 314 312 309 312 313 314 314 312 311 311 312 314 314 317 314 313 313 313 315 313 313 314 315 318 314 312 314 315 316 315 317 323 327 328 326 325 326 328 327 321 320 319 328 338
311 314 309 309 312 311 309 312 311 311 310 311 313 314 314 314 313 314 314 315 312 313 313 316 317 315 312 315 317 317 318 319 320 323 323 328 326 328 334 322 326 331 335 339 340
310 312 309 311 311 312 310 312 311 311 310 311 313 313 314 313 314 314 314 314 313 313 314 315 319 318 312 316 316 316 317 319 322 324 325 328 329 330 332 332 332 331 337 338 337
309 311 309 310 312 312 312 313 312 311 311 312 312 313 312 313 314 313 313 313 314 314 312 314 319 317 315 318 318 319 318 320 321 323 325 329 332 331 330 331 333 336 336 336 335
309 308 309 308 309 311 312 313 311 311 311 311 312 313 313 313 313 315 314 314 314 315 314 314 317 320 317 317 319 321 321 319 321 326 329 330 336 332 328 328 329 332 333 333 333
306 307 306 306 308 308 312 311 311 312 311 312 313 313 313 313 314 316 314 314 315 314 314 316 318 318 319 321 318 320 320 321 322 324 327 330 332 330 328 328 328 330 330 328 326
306 305 305 305 307 309 311 311 310 311 312 312 312 312 312 313 314 313 314 314 316 315 314 315 319 319 320 320 321 319 319 320 320 322 330 330 332 329 327 328 329 327 325 324 322
304 305 306 306 308 309 310 310 310 311 311 311 311 312 313 313 311 312 313 313 315 316 316 314 319 322 322 321 322 321 320 319 323 328 328 331 329 326 325 325 324 323 321 320 319
Wind_Speed
21 21 21 21 22 23 24 25 25 25 25 25 26 27 28 31 32 28 34 31 29 25 14 18 16 15 17 21 23 20 7 17 25 19 12 29 7 30 18 20 6 12 26 38 34
21 21 22 23 23 24 24 24 23 24 25 27 26 26 26 30 31 34 39 16 12 17 27 22 18 16 20 19 13 12 12 26 9 12 15 22 14 23 5 2 4 26 33 32 35
23 23 24 26 27 26 25 23 22 21 21 22 22 23 25 27 27 5 4 7 21 20 15 29 21 20 25 26 22 8 26 14 18 25 31 24 23 29 5 5 10 13 32 31 28
24 26 28 29 30 29 28 27 26 25 23 21 22 25 21 14 7 6 7 16 27 22 11 18 25 27 5 12 30 17 26 27 24 27 34 21 28 17 10 12 19 16 22 30 29
27 30 32 34 35 35 33 29 28 27 26 21 24 23 16 10 28 22 13 18 14 16 9 16 24 23 20 7 22 24 23 25 30 34 37 30 20 18 17 13 19 17 21 29 28
30 32 35 37 37 37 34 32 30 26 23 22 23 17 13 18 18 11 14 21 13 13 20 17 21 24 19 17 20 8 22 25 29 32 35 22 17 17 21 9 11 13 11 25 29
32 34 36 38 39 37 34 32 27 24 21 18 18 13 15 38 21 13 12 17 12 19 25 22 26 26 17 14 39 33 22 16 24 30 25 25 18 23 21 12 13 12 10 6 34
33 35 37 38 40 36 31 26 23 12 14 15 16 10 14 23 10 12 9 13 12 19 25 21 23 25 27 26 27 16 15 18 23 25 25 17 24 15 17 12 18 14 16 14 10
35 37 39 40 39 32 26 22 13 23 19 17 13 7 13 11 15 7 11 14 12 12 13 19 20 23 23 14 15 13 16 21 24 21 20 19 10 9 19 20 20 16 21 19 19
36 38 41 43 38 27 24 19 19 12 4 5 4 5 19 7 15 28 26 14 13 9 12 12 17 9 12 14 15 17 23 21 25 24 25 24 17 8 21 25 20 18 24 25 23
38 40 41 43 34 20 22 25 24 3 9 14 22 21 35 45 38 28 21 14 16 10 6 8 5 15 17 20 23 19 20 22 15 20 16 23 16 14 12 15 20 25 26 27 25
38 40 43 41 24 14 16 17 11 9 18 30 22 30 34 25 27 24 18 15 11 9 8 10 13 21 18 19 23 25 23 21 16 18 19 12 16 9 13 12 23 26 31 34 32
40 42 43 35 14 13 16 18 14 18 6 17 13 18 17 16 15 23 20 20 10 12 14 13 11 14 25 21 21 26 23 19 16 16 16 11 7 16 19 21 19 35 39 36 39
40 42 39 24 9 12 11 22 17 21 2 5 11 9 16 25 10 9 9 16 5 10 19 12 17 18 20 24 21 22 21 21 16 13 13 17 13 14 19 15 14 17 33 36 36
41 39 29 12 19 14 21 22 21 15 4 5 17 23 35 14 23 2 10 6 10 14 11 8 9 13 18 21 22 20 19 17 19 13 1 15 10 16 13 11 15 14 27 38 38
40 31 17 10 16 20 25 22 12 3 4 10 23 23 25 18 12 5 1 4 6 8 14 19 19 14 9 15 21 18 19 19 16 9 7 18 10 7 15 23 14 8 27 40 39
39 20 10 14 18 19 19 16 3 2 18 16 26 26 12 19 16 14 15 4 4 5 7 10 20 19 14 6 17 21 14 7 10 8 6 11 7 7 15 14 12 11 23 35 38
34 13 8 12 17 15 20 3 2 15 13 20 22 21 10 18 16 19 11 6 6 7 3 4 4 18 21 23 6 18 14 3 5 8 11 11 7 13 10 15 21 29 30 31 38
21 9 11 16 14 11 14 3 4 10 16 18 19 10 12 19 11 14 13 2 7 4 3 4 5 13 17 9 10 6 12 18 5 5 5 5 4 2 15 12 15 23 34 26 38
21 13 9 23 19 12 5 5 8 13 16 15 8 6 13 18 12 14 8 2 6 9 5 4 6 12 18 15 15 8 6 10 4 5 6 5 9 5 5 5 16 19 15 29 33
18 9 17 17 11 12 2 4 10 21 21 10 14 10 14 8 7 6 6 7 1 7 11 3 3 3 17 6 10 3 2 5 3 4 5 6 5 6 6 13 18 20 35 36 40
12 4 19 18 10 8 4 6 12 15 19 9 6 6 5 7 6 5 7 9 1 8 8 4 3 4 13 14 18 6 8 8 7 6 3 4 1 9 15 17 22 26 39 41 42
18 6 16 16 3 4 8 11 12 13 15 8 6 9 3 10 8 7 8 9 6 10 4 5 1 3 6 7 4 4 8 11 8 3 4 2 2 7 11 16 22 34 39 41 42
10 4 9 9 21 9 10 11 15 18 9 18 11 12 13 13 11 9 12 8 24 6 9 6 4 3 1 3 4 3 5 5 3 1 5 3 7 4 6 10 11 25 36 38 39
12 6 7 5 8 17 12 15 19 13 11 10 3 8 20 11 16 3 19 21 12 6 4 5 3 5 10 14 7 6 6 5 6 12 5 9 13 7 5 5 14 28 34 39 40
8 7 9 23 22 15 9 13 19 21 11 11 13 21 18 15 11 25 22 20 5 2 1 2 3 6 6 3 8 3 7 10 12 22 16 16 12 5 10 18 17 28 36 38 37
14 13 9 12 10 11 8 16 20 19 9 22 19 20 19 14 31 36 34 33 17 6 2 1 2 2 1 2 4 7 6 8 2 13 13 14 9 13 8 15 23 30 35 38 38
Wind_Direction
352 348 343 340 338 336 331 325 324 319 315 313 309 311 314 313 308 297 283 289 281 283 258 270 228 219 240 237 223 234 231 238 238 233 243 263 261 273 275 229 89 63 134 142 145
348 346 344 341 337 332 326 323 319 315 314 310 311 312 312 310 310 293 295 283 301 288 253 256 252 229 235 228 228 211 220 234 235 242 257 272 277 269 254 139 96 102 122 134 148
349 345 341 340 338 335 330 323 319 316 308 303 304 308 308 310 320 302 101 140 348 322 289 233 240 253 254 218 218 246 233 240 238 249 263 273 282 288 200 208 169 153 141 144 152
346 345 344 344 342 338 333 327 324 322 316 308 312 311 311 314 287 350 247 259 302 322 281 219 230 244 261 232 218 246 247 245 250 242 249 257 274 291 291 188 177 189 163 156 153
348 347 346 345 343 338 332 326 320 321 311 309 311 312 309 271 258 310 334 317 310 284 248 232 224 228 240 243 248 234 238 245 248 257 262 277 284 280 293 167 186 177 207 171 171
349 348 346 343 341 335 330 325 320 314 306 309 308 310 283 262 304 297 291 292 268 249 261 255 246 235 271 238 245 256 232 240 248 246 254 255 275 280 272 255 198 171 186 185 175
348 346 344 342 339 333 328 327 324 317 306 299 300 295 265 264 297 296 270 317 319 264 274 274 243 235 230 245 248 249 263 244 230 241 246 239 259 253 257 228 282 217 193 137 179
346 344 342 340 337 332 330 334 330 337 300 288 287 276 258 315 298 306 306 294 308 286 274 271 275 280 263 265 280 251 246 245 239 230 236 204 239 240 228 218 250 233 185 188 187
344 343 341 339 336 331 333 342 344 327 298 281 265 250 266 324 277 320 344 260 283 315 288 263 275 281 275 261 259 256 230 233 240 231 220 216 219 209 196 218 232 220 201 190 196
344 342 339 337 335 332 335 349 350 335 33 353 287 242 259 259 299 298 303 278 264 265 286 271 278 271 262 243 231 227 218 229 224 224 210 224 228 184 230 203 214 220 180 190 206
343 341 338 337 335 337 340 347 358 332 296 283 269 246 277 278 287 288 282 287 285 221 256 243 256 240 246 232 243 244 246 236 249 221 231 216 213 196 229 210 200 201 187 186 200
341 341 339 336 335 348 337 338 3 313 308 313 283 265 267 285 272 279 282 282 295 240 256 260 225 251 242 257 236 245 244 235 227 223 225 205 206 200 209 232 200 197 193 196 203
341 343 339 337 340 354 330 340 321 335 297 306 312 301 335 320 311 271 297 279 245 265 250 238 246 249 247 247 258 238 238 243 230 206 230 208 216 202 210 222 219 200 201 198 201
340 344 339 342 4 3 356 341 325 333 334 272 346 353 312 316 301 289 321 293 212 244 257 223 241 240 251 240 244 249 238 244 247 217 215 204 218 219 203 207 216 206 194 195 200
342 346 344 343 344 338 337 331 321 339 313 33 357 342 338 351 317 308 289 207 257 256 279 269 213 248 237 237 237 266 241 236 250 264 224 200 196 207 170 209 212 209 183 189 197
343 346 349 4 344 346 343 324 313 325 313 336 346 338 338 340 14 321 292 348 2 259 262 264 260 252 270 271 234 244 269 243 246 247 258 255 174 203 186 206 203 182 175 185 192
343 346 356 345 347 355 346 336 14 33 336 340 336 332 337 352 346 352 322 231 216 243 219 266 234 230 219 257 255 229 233 228 217 218 214 264 262 196 205 199 189 170 163 172 182
349 354 13 335 349 345 337 4 310 346 337 334 333 319 353 358 333 344 317 341 272 221 303 264 266 195 201 220 189 224 225 215 137 158 209 220 231 203 210 187 191 166 171 173 173
6 26 13 338 337 324 4 10 349 1 344 332 330 333 338 336 347 347 326 284 350 206 281 302 258 185 185 151 146 218 213 199 309 177 133 194 277 185 181 181 174 160 165 168 175
358 11 21 350 7 332 47 306 347 354 340 339 317 322 317 332 342 342 297 358 340 355 308 288 300 188 178 175 185 221 180 192 191 183 156 159 203 206 155 216 164 147 129 122 121
10 338 6 12 28 34 77 311 318 346 349 338 315 306 318 322 310 306 285 298 12 313 329 252 265 215 157 159 205 166 181 241 17 264 160 151 218 125 80 141 123 110 105 104 103
15 330 2 17 42 350 351 336 316 355 348 325 295 310 305 304 283 295 298 313 50 11 323 302 322 298 177 156 196 194 215 185 181 260 290 141 266 332 102 92 102 106 105 107 107
341 288 343 22 32 349 320 310 338 356 340 353 310 315 316 311 305 247 278 304 327 319 297 339 287 323 345 114 106 172 234 184 180 344 171 99 267 9 53 82 93 111 112 112 112
343 344 343 356 351 339 316 347 351 354 336 336 305 305 310 312 294 284 289 301 318 327 249 188 292 258 210 137 145 113 309 161 179 357 53 358 104 68 71 100 102 103 112 113 112
16 15 23 312 320 311 309 2 346 343 354 350 299 325 329 309 312 272 313 312 329 132 325 185 259 248 265 285 128 161 250 326 289 210 131 157 142 153 129 124 117 115 107 106 108
27 351 323 297 290 318 17 345 349 337 346 334 324 323 314 302 294 309 308 301 282 183 125 304 291 346 257 311 337 187 206 230 256 200 121 120 113 114 106 102 112 108 109 107 105
8 347 315 285 324 333 339 336 340 333 314 326 323 318 318 314 306 290 283 274 259 238 256 230 277 218 342 148 290 211 255 201 354 69 122 143 135 114 102 112 107 109 106 105 103